Regional Weather Roundup
Issued by NWS

Home | Current Version | Previous Version | Text Only | Print | Product List | Glossary On
Versions: 1 2 3 4 5 6 7 8 9 10 11 12 13 14 15 16 17 18 19 20 21 22 23 24 25 26 27 28 29 30 31 32 33 34 35 36 37 38 39 40 41 42 43 44 45 46 47 48 49 50
269
ASUS43 KBIS 211002
RWRND

NORTH DAKOTA REGIONAL WEATHER ROUNDUP
NATIONAL WEATHER SERVICE BISMARCK ND
400 AM CST TUE NOV 21 2017

NOTE: "FAIR" INDICATES FEW OR NO CLOUDS BELOW 12,000 FEET WITH NO
SIGNIFICANT WEATHER AND/OR OBSTRUCTIONS TO VISIBILITY.


NDZ001>003-009>011-017-211100-
NORTHWEST NORTH DAKOTA

CITY           SKY/WX    TMP DP  RH WIND       PRES   REMARKS
WILLISTON      CLOUDY     4  -2  76 NW15G23   30.26R WCI -14
MINOT          CLEAR      9   2  73 NW22G30   30.12R WCI -11
MINOT AFB      CLEAR      8   1  74 NW21G31   30.11R WCI -12
$$

NDZ018>021-031>035-040>046-211100-
SOUTHWEST NORTH DAKOTA

CITY           SKY/WX    TMP DP  RH WIND       PRES   REMARKS
BISMARCK       CLOUDY    18   6  59 NW16G28   30.12R WCI   3
DICKINSON      CLOUDY     6  -1  73 NW15      30.13R WCI -12
GARRISON         N/A      7   2  80 NW23G30   30.12R WCI -14
HETTINGER ARPT CLOUDY    10  -2  58 N15G31    30.13R WCI  -7
$$

NDZ004>008-012>016-024-026-027-054-211100-
NORTHEAST NORTH DAKOTA

CITY           SKY/WX    TMP DP  RH WIND       PRES   REMARKS
GRAND FORKS    CLOUDY    17  10  74 NW28G39   29.92R WCI  -2
GRND FRKS AFB  FLURRIES  16   9  74 N20G30    29.93R WCI  -1
DEVILS LAKE    CLOUDY    14   7  73 NW23      29.99R WCI  -5
$$

NDZ022-023-025-028>030-036>039-047>053-211100-
SOUTHEAST NORTH DAKOTA

CITY           SKY/WX    TMP DP  RH WIND       PRES   REMARKS
FARGO          CLOUDY    20  10  65 NW26G38   29.89R WCI   2
JAMESTOWN      CLOUDY    14   8  77 NW25G35   29.97R WCI  -5
$$





USA.gov is the U.S. government's official web portal to all federal, state and local government web resources and services.